Lumberton, NC

11:52 PM EST on February 08, 2016 (GMT -0500)
Lumberton Municipal

Weather History for KLBT - May, 2013

Change the Weather History Date:

Thursday, May 9, 2013

  Actual Average Record
Temperature  
Mean Temperature 68 °F 68 °F  
Max Temperature 82 °F 81 °F 91 °F (2000)
Min Temperature 53 °F 55 °F 46 °F (2005)
Degree Days  
Heating Degree Days 0 1  
Month to date heating degree days 18 19  
Since 1 July heating degree days 2782 2748  
Cooling Degree Days 3 4  
Month to date cooling degree days 3 33  
Year to date cooling degree days 47 101  
Growing Degree Days 18 (Base 50)    
Moisture  
Dew Point 56 °F    
Average Humidity 70    
Maximum Humidity 100    
Minimum Humidity 40    
Precipitation  
Precipitation 0.00 in 0.09 in 0.92 in (2015)
Month to date precipitation 0.73 0.64  
Year to date precipitation 12.09 12.66  
Sea Level Pressure  
Sea Level Pressure 30.01 in    
Wind  
Wind Speed 3 mph (WNW)    
Max Wind Speed 14 mph    
Max Gust Speed 18 mph    
Visibility 5 miles    
Events Fog    
T = Trace of Precipitation, MM = Missing Value Source: NWS Daily Summary

Daily Weather History Graph

Daily Weather History Graph

Search for Another Location

Airport or City:

Trip Planner

Search our weather history database for the weather conditions in past years. The results will help you decide how hot, cold, wet, or windy it might be!

Date:

Astronomy

May. 09, 2013 Rise Set
Actual Time 6:18 AM EDT 8:07 PM EDT
Civil Twilight 5:50 AM EDT 8:35 PM EDT
Nautical Twilight 5:17 AM EDT 9:08 PM EDT
Astronomical Twilight 4:42 AM EDT 9:43 PM EDT
Moon 6:00 AM EDT 8:01 PM EDT
Length of Visible Light 14h 44m
Length of Day
13h 49m
Waning Crescent, 0% of the Moon is Illuminated
May 9
Waning Crescent
May 9
New
May 18
First Quarter
May 25
Full
May 31
Last Quarter

Hourly Weather History & Observations

Time (EDT) Temp. Heat Index Dew Point Humidity Pressure Visibility Wind Dir Wind Speed Gust Speed Precip Events Conditions
12:54 AM 63.0 °F - 61.0 °F 93% 30.00 in 10.0 mi Calm Calm - N/A   Mostly Cloudy
1:54 AM 60.1 °F - 57.9 °F 93% 29.99 in 8.0 mi Calm Calm - N/A   Scattered Clouds
2:27 AM 59.0 °F - 57.2 °F 94% 29.98 in 2.5 mi Calm Calm - N/A   Clear
2:34 AM 57.2 °F - 57.2 °F 100% 29.98 in 3.0 mi Calm Calm - N/A   Clear
2:54 AM 57.0 °F - 55.9 °F 96% 29.98 in 2.5 mi Calm Calm - N/A   Clear
2:57 AM 57.2 °F - 57.2 °F 100% 29.98 in 1.5 mi Calm Calm - N/A   Clear
3:08 AM 57.2 °F - 55.4 °F 94% 29.98 in 2.5 mi Calm Calm - N/A   Clear
3:15 AM 55.4 °F - 55.4 °F 100% 29.98 in 3.0 mi Calm Calm - N/A   Clear
3:22 AM 57.2 °F - 55.4 °F 94% 29.98 in 2.0 mi Calm Calm - N/A   Clear
3:45 AM 57.2 °F - 55.4 °F 94% 29.98 in 4.0 mi Calm Calm - N/A   Clear
3:54 AM 55.9 °F - 55.9 °F 100% 29.98 in 4.0 mi Calm Calm - N/A   Clear
4:38 AM 55.4 °F - 55.4 °F 100% 29.98 in 1.8 mi Calm Calm - N/A   Clear
4:42 AM 55.4 °F - 55.4 °F 100% 29.99 in 1.0 mi Calm Calm - N/A   Clear
4:49 AM 55.4 °F - 53.6 °F 94% 29.99 in 0.2 mi Calm Calm - N/A Fog Fog
4:54 AM 55.0 °F - 54.0 °F 96% 29.99 in 0.2 mi Calm Calm - N/A Fog Fog
5:14 AM 55.4 °F - 55.4 °F 100% 29.99 in 1.2 mi Calm Calm - N/A   Clear
5:18 AM 55.4 °F - 55.4 °F 100% 30.00 in 0.8 mi Calm Calm - N/A   Clear
5:54 AM 53.1 °F - 52.0 °F 96% 30.00 in 0.8 mi Calm Calm - N/A   Clear
5:58 AM 53.6 °F - 51.8 °F 94% 30.00 in 1.2 mi Calm Calm - N/A   Clear
6:01 AM 53.6 °F - 51.8 °F 94% 30.00 in 2.0 mi Calm Calm - N/A   Clear
6:09 AM 53.6 °F - 53.6 °F 100% 30.00 in 1.5 mi Calm Calm - N/A   Clear
6:12 AM 53.6 °F - 53.6 °F 100% 30.00 in 0.8 mi Calm Calm - N/A   Clear
6:37 AM 53.6 °F - 53.6 °F 100% 30.02 in 1.2 mi Calm Calm - N/A   Clear
6:41 AM 53.6 °F - 53.6 °F 100% 30.02 in 2.0 mi Calm Calm - 0.01 in   Clear
6:54 AM 55.0 °F - 55.0 °F 100% 30.02 in 2.0 mi Calm Calm - 0.01 in   Clear
7:08 AM 57.2 °F - 55.4 °F 94% 30.03 in 5.0 mi NW 3.5 mph - N/A   Clear
7:54 AM 61.0 °F - 60.1 °F 97% 30.04 in 6.0 mi WNW 5.8 mph - N/A   Clear
8:54 AM 68.0 °F - 62.1 °F 81% 30.06 in 10.0 mi NNW 3.5 mph - N/A   Clear
9:54 AM 71.1 °F - 60.1 °F 68% 30.06 in 10.0 mi WNW 5.8 mph - N/A   Clear
10:54 AM 75.0 °F - 59.0 °F 57% 30.07 in 10.0 mi Variable 4.6 mph - N/A   Clear
11:54 AM 77.0 °F - 55.9 °F 48% 30.07 in 10.0 mi NW 5.8 mph - N/A   Clear
1:54 PM 80.1 °F 80.2 °F 55.9 °F 43% 30.05 in 10.0 mi West 6.9 mph - N/A   Clear
2:54 PM 81.0 °F 81.0 °F 57.0 °F 44% 30.05 in 10.0 mi West 10.4 mph - N/A   Clear
3:54 PM 82.0 °F 81.4 °F 55.0 °F 39% 30.03 in 10.0 mi West 8.1 mph - N/A   Partly Cloudy
4:54 PM 82.0 °F 81.4 °F 55.0 °F 39% 30.02 in 10.0 mi West 9.2 mph - N/A   Clear
5:54 PM 80.1 °F 80.2 °F 55.9 °F 43% 30.02 in 10.0 mi West 6.9 mph - N/A   Partly Cloudy
6:54 PM 78.1 °F - 57.0 °F 48% 30.01 in 10.0 mi West 4.6 mph - N/A   Clear
7:54 PM 70.0 °F - 63.0 °F 78% 30.03 in 10.0 mi Calm Calm - N/A   Clear
8:54 PM 63.0 °F - 61.0 °F 93% 30.05 in 10.0 mi Calm Calm - N/A   Clear
9:54 PM 60.1 °F - 59.0 °F 96% 30.07 in 10.0 mi Calm Calm - N/A   Clear
10:54 PM 60.1 °F - 59.0 °F 96% 30.07 in 10.0 mi Calm Calm - N/A   Clear
11:54 PM 57.9 °F - 57.9 °F 100% 30.07 in 9.0 mi Calm Calm - N/A   Clear